カタログに戻る

FALCON 9 R/B

運用中MEO
NORAD 58348·ROCKET BODY·🇺🇸 United States

打ち上げ Nov 12, 2023 から Cape Canaveral Space Force Station

Loading…

次のパス (今後24時間)

TLE

最新Source: Space-Track

元期: Sep 14, 2026, 13:51 UTC

1 58348U 23175C   26257.57760694  .00000029  00000-0 -88866-2 0  9992
2 58348   9.0188  86.5320 1974411 352.2265   5.1211  7.34839601 76264

AllMySatでFALCON 9 R/Bをリアルタイム追跡

Download on the App Store